Location: La Fredeussais
(48.1780°N, 1.3980°W)
Time: 08:55:07
(UTC+00:00)

Cosmos 1151 Rocket - Pass Details

Date: 09 May 2021
Orbit: 592 x 616 km, 82.5° (Epoch: 13 June)

Event Time Altitude Azimuth Distance (km) Brightness Sun altitude
Exits shadow 21:09:49 - 189° (S) 2,051 5.4 -13.8°
Reaches altitude 10° 21:10:03 10° 189° (S) 1,962 5.3 -13.9°
Maximum altitude 21:14:24 88° 274° (W) 621 3.0 -14.3°
Drops below altitude 10° 21:18:49 10° 9° (N) 1,988 6.2 -14.8°
Sets 21:21:04 0° 10° (N) 2,900 7.1 -15.1°
